This is the latest recevied weather packets stored in our database for station/object N5CSU. If no packets are shown the sender has not sent any weather packets the latest 10 day(s).
| Time | Temp. | Humidity | Pressure | Rain* | Wind** | Luminosity | Snow |
|---|---|---|---|---|---|---|---|
| 1788364160 | 31.11° C | 64% | 1016.6 hPa | 0 mm | - | 427 W/m² | - |
| 1788363856 | 31.11° C | 65% | 1016.6 hPa | 0 mm | - | 224 W/m² | - |
| 1788363555 | 31.11° C | 63% | 1016.7 hPa | 0 mm | - | 15 W/m² | - |
| 1788363253 | 31.11° C | 64% | 1016.6 hPa | 0 mm | - | 15 W/m² | - |
| 1788362950 | 31.11° C | 65% | 1016.6 hPa | 0 mm | - | 15 W/m² | - |
| 1788362646 | 30.56° C | 68% | 1016.6 hPa | 0 mm | - | 15 W/m² | - |
| 1788362341 | 30.56° C | 67% | 1016.6 hPa | 0 mm | - | 14 W/m² | - |
| 1788362036 | 30° C | 67% | 1016.5 hPa | 0 mm | - | 14 W/m² | - |
| 1788361730 | 30° C | 68% | 1016.7 hPa | 0 mm | - | 14 W/m² | - |
| 1788361427 | 30° C | 68% | 1016.7 hPa | 0 mm | - | 14 W/m² | - |
| 1788361126 | 30° C | 69% | 1016.6 hPa | 0 mm | - | 14 W/m² | - |
| 1788360821 | 29.44° C | 70% | 1016.4 hPa | 0 mm | - | 13 W/m² | - |
| 1788360517 | 29.44° C | 71% | 1016.5 hPa | 0 mm | - | 13 W/m² | - |
| 1788360213 | 29.44° C | 73% | 1016.5 hPa | 0 mm | - | 13 W/m² | - |
| 1788359908 | 28.89° C | 73% | 1016.5 hPa | 0 mm | - | 13 W/m² | - |
| 1788359608 | 28.89° C | 72% | 1016.5 hPa | 0 mm | - | 12 W/m² | - |
| 1788359304 | 28.89° C | 73% | 1016.4 hPa | 0 mm | - | 12 W/m² | - |
| 1788359000 | 28.33° C | 74% | 1016.3 hPa | 0 mm | - | 12 W/m² | - |
| 1788358694 | 28.33° C | 75% | 1016.4 hPa | 0 mm | - | 11 W/m² | - |
| 1788358390 | 28.33° C | 76% | 1016.3 hPa | 0 mm | - | 11 W/m² | - |
| 1788358089 | 28.33° C | 76% | 1016.3 hPa | 0 mm | - | 11 W/m² | - |
| 1788357785 | 27.78° C | 77% | 1016.7 hPa | 0 mm | - | 10 W/m² | - |
| 1788357484 | 27.78° C | 77% | 1016.5 hPa | 0 mm | - | 9 W/m² | - |
| 1788357180 | 27.78° C | 77% | 1016.4 hPa | 0 mm | - | 9 W/m² | - |
| 1788356879 | 27.78° C | 79% | 1016.4 hPa | 0 mm | - | 8 W/m² | - |
* Rain latest hour (hover to see other rain measurements)
** Current wind speed in m/s (hover to see current wind gust speed)